TIME,DELAY(SENSOR),PRES,OXYGEN,RAWTEMP,T(OPTODE),TCPHASE,FLUOR,BETA(BETA700),BETA(BETA412),BETA(BETA440),CDOM,C(CSC),ED(ED412.20),ED(ED444.00),ED(ED489.60),ED(ED554.30),LU(LU412.10),LU(LU443.90),LU(LU489.70),LU(LU554.70),COMP,TILTX,TILTY,CHECK
1336102421,5807,871.8400268554688000,40.5836715698242200,566.4661865234375000,4.2853240966796875,55.4876708984375000,55,100,102,78,83,15484,0,0,0,0,2147124516,2147775652,2147576283,2147573933,356,2,13,40979
1336106017,5810,949.9099731445312000,45.3785095214843750,573.5172729492188000,4.0662059783935550,54.8779411315918000,56,101,103,78,83,15483,0,0,0,0,2147125028,2147774491,2147575872,2147572406,1057,2,13,11716
1336109617,5811,974.2800292968750000,46.0066108703613300,575.0501708984375000,4.0185151100158690,54.8025093078613300,55,101,102,78,83,15483,0,0,0,0,2147127762,2147777792,2147574976,2147572681,3089,2,13,14358
1336113217,5811,974.3499755859375000,46.0803489685058600,576.7379150390625000,3.9659841060638428,54.8102989196777340,55,101,102,79,83,15464,0,0,0,0,2147126308,2147773677,2147575643,2147573476,102,2,13,29931
1336116817,5809,974.5300292968750000,46.3390388488769500,577.6519165039062000,3.9375269412994385,54.7901191711425800,55,99,101,78,83,15463,0,0,0,0,2147124297,2147775588,2147572937,2147574729,2733,2,13,35688
1336120417,5809,980.6799926757812000,45.8821105957031250,577.5313720703125000,3.9412779808044434,54.8474693298339840,55,99,100,78,84,15460,0,0,0,0,2147126601,2147771812,2147572836,2147571337,3518,2,13,56820
1336124017,5810,987.2600097656250000,46.2437896728515600,577.6234741210938000,3.9384078979492188,54.8030891418457000,54,98,103,79,83,15457,0,0,0,0,2147123693,2147780077,2147577005,2147572928,3359,2,13,58241
1336127617,5811,989.5999755859375000,45.1570205688476560,576.8363037109375000,3.9629189968109130,54.9465293884277340,55,100,102,78,84,15455,0,0,0,0,2147125257,2147773686,2147572873,2147571812,3559,2,13,64445
1336131217,5811,989.3499755859375000,45.8429489135742200,577.4833984375000000,3.9427719116210938,54.8568611145019500,55,99,101,78,82,15457,0,0,0,0,2147126930,2147773549,2147574272,2147575232,3452,2,13,29479
1336134817,5813,993.2899780273438000,44.5109291076660160,576.9075927734375000,3.9606990814208984,55.0368309020996100,55,100,101,77,84,15452,0,0,0,0,2147126784,2147778688,2147575670,2147573184,3507,2,13,17284
1336138417,5809,994.3800048828125000,45.0712203979492200,576.9672851562500000,3.9588410854339600,54.9620285034179700,54,99,102,79,83,15455,0,0,0,0,2147125019,2147775451,2147576786,2147574729,3361,2,13,6493
1336142017,5810,989.7800292968750000,45.8538398742675800,577.4619750976562000,3.9434380531311035,54.8534584045410160,55,186,102,77,84,15454,0,0,0,0,2147125129,2147779227,2147580653,2147572288,246,2,13,4942
1336145617,5811,989.2999877929688000,44.9361915588378900,578.2052001953125000,3.9202919006347656,54.9885215759277340,55,103,102,78,83,15457,0,0,0,0,2147125888,2147777801,2147578212,2147572580,115,2,13,47895
1336149217,5812,989.1199951171875000,44.3476181030273440,578.1340942382812000,3.9225060939788820,55.0741310119628900,55,102,101,79,84,15457,0,0,0,0,2147126720,2147775844,2147576704,2147573019,477,2,13,64958
1336152817,5811,991.1900024414062000,45.1578788757324200,578.6303710937500000,3.9070470333099365,54.9650192260742200,55,100,102,79,84,15456,0,0,0,0,2147122953,2147774180,2147576658,2147571949,3558,2,13,51731
1336156417,5810,989.9799804687500000,45.7562789916992200,578.3696899414062000,3.9151690006256104,54.8777503967285160,55,98,101,78,84,15456,0,0,0,0,2147125632,2147774006,2147574592,2147575067,1076,2,13,13778
1336160017,5807,989.3599853515625000,45.4565811157226560,578.9462280273438000,3.8972089290618896,54.9254302978515600,55,100,102,80,84,15457,0,0,0,0,2147127305,2147772306,2147576256,2147574372,733,2,13,46435
1336163617,5809,991.6099853515625000,45.1769905090332000,578.8336181640625000,3.9007170200347900,54.9611091613769500,55,107,102,79,83,15453,0,0,0,0,2147127826,2147770486,2147579812,2147572434,3421,2,13,54846
1336167217,5811,989.9400024414062000,45.2247695922851560,578.8344116210938000,3.9006938934326170,54.9583816528320300,54,100,102,79,84,15450,0,0,0,0,2147124690,2147776073,2147574198,2147573339,623,2,13,54612
1336170817,5809,995.8400268554688000,45.8054809570312500,578.4077148437500000,3.9139859676361084,54.8735618591308600,55,98,101,79,83,15447,0,0,0,0,2147126281,2147781915,2147574573,2147572050,3205,2,13,54664
1336174417,5809,997.6500244140625000,45.5574989318847660,578.0203857421875000,3.9260480403900146,54.8988685607910160,54,100,101,78,83,15451,0,0,0,0,2147124736,2147777069,2147576192,2147573284,3393,2,13,22298
1336178017,5808,995.0700073242188000,45.2665214538574200,577.0040283203125000,3.9576990604400635,54.9323997497558600,54,101,102,80,85,15448,0,0,0,0,2147125010,2147778797,2147573001,2147572571,505,2,13,17170
1336181617,5808,994.9500122070312000,43.9730300903320300,577.4733886718750000,3.9430809020996094,55.1158103942871100,54,100,103,79,84,15444,0,0,0,0,2147125513,2147777316,2147574921,2147571894,294,2,13,8407
1336185217,5814,993.6599731445312000,45.4287300109863300,577.1851806640625000,3.9520549774169920,54.9084014892578100,55,101,102,78,83,15447,0,0,0,0,2147122386,2147770998,2147572425,2147572854,47,2,13,44252
1336188817,5810,998.0999755859375000,44.6697006225585940,577.7230834960938000,3.9353051185607910,55.0269889831543000,55,101,102,78,83,15445,0,0,0,0,2147124909,2147766354,2147576987,2147574345,3237,2,13,36345
1336192417,5753,993.8699951171875000,44.2357597351074200,578.2501220703125000,3.9188940525054930,55.0917892456054700,55,101,100,78,83,15442,0,0,0,0,2147126838,2147772534,2147574884,2147571803,193,2,13,15267
1336196017,5812,992.9899902343750000,45.0017509460449200,579.5565795898438000,3.8781950473785400,54.9949989318847660,54,98,101,79,83,15445,0,0,0,0,2147124617,2147771328,2147581540,2147574372,83,2,13,27236
1336199617,5810,990.4400024414062000,47.1840209960937500,579.5634765625000000,3.8779768943786620,54.6955718994140600,55,99,101,79,84,15446,0,0,0,0,2147124160,2147774491,2147575881,2147572534,81,2,13,55879
1336203217,5812,997.2100219726562000,46.6455497741699200,578.9544067382812000,3.8969550132751465,54.7565383911132800,55,99,102,78,84,15444,0,0,0,0,2147125952,2147774025,2147574628,2147573760,155,2,13,23894
1336206817,5810,996.9299926757812000,45.2127304077148440,578.2299804687500000,3.9195210933685303,54.9490699768066400,55,100,102,78,84,15444,0,0,0,0,2147124699,2147776804,2147577362,2147571867,59,2,13,10286
1336210417,5809,994.2100219726562000,45.6099700927734400,578.5596923828125000,3.9092500209808350,54.8986587524414060,54,99,101,78,84,15443,0,0,0,0,2147124406,2147776502,2147572891,2147572507,549,2,13,51177
1336214017,5811,1000.1300048828125000,46.2549400329589840,578.2805175781250000,3.9179461002349854,54.8088989257812500,56,98,102,77,84,15441,0,0,0,0,2147127131,2147775085,2147575579,2147574509,38,2,13,13108
1336217617,5809,994.0399780273438000,46.2151107788085940,579.1964111328125000,3.8894159793853760,54.8259887695312500,54,101,102,79,84,15440,0,0,0,0,2147129481,2147777673,2147573266,2147573412,209,2,13,30980
1336221217,5811,1000.7999877929688000,46.3219490051269500,579.3348999023438000,3.8851010799407960,54.8094596862793000,55,99,101,78,83,15438,0,0,0,0,2147126189,2147773312,2147574162,2147573037,133,2,13,18056
1336224817,5808,999.3699951171875000,45.8111991882324200,578.3217163085938000,3.9166638851165770,54.8685913085937500,55,101,102,78,84,15423,0,0,0,0,2147128850,2147771684,2147571318,2147572845,3334,2,13,6675
1336228417,5808,999.2500000000000000,44.8071899414062500,578.3253784179688000,3.9165480136871340,55.0084304809570300,55,101,101,79,84,15437,0,0,0,0,2147127881,2147773586,2147570541,2147572873,587,2,13,7810
1336232017,5807,999.5000000000000000,45.7148017883300800,578.4105224609375000,3.9138970375061035,54.8814392089843750,55,101,103,79,83,15434,0,0,0,0,2147129572,2147768484,2147572553,2147571492,491,2,13,37866
1336235617,5808,996.7999877929688000,45.4106101989746100,578.0529785156250000,3.9250319004058840,54.9213409423828100,56,100,101,77,84,15434,0,0,0,0,2147130221,2147770651,2147573348,2147573412,110,2,13,58122
1336239217,5810,999.2199707031250000,45.0276489257812500,578.7329101562500000,3.9038538932800293,54.9845695495605500,55,101,102,79,85,15430,0,0,0,0,2147127094,2147770221,2147571940,2147574756,435,2,13,35400
1336242817,5809,992.5300292968750000,44.5021095275878900,579.2913818359375000,3.8864560127258300,55.0624008178710940,54,99,101,78,84,15431,0,0,0,0,2147128758,2147773357,2147574390,2147573869,273,2,13,18254
1336246417,5811,995.9299926757812000,46.3240318298339840,579.8402099609375000,3.8693559169769287,54.8164291381835940,55,100,102,78,84,15428,0,0,0,0,2147127533,2147777179,2147573723,2147571428,102,2,13,57282
1336247456,5810,1000.4400024414062000,46.4935798645019500,579.7133178710938000,3.8733119964599610,54.7860908508300800,55,100,103,78,84,15424,0,0,0,0,2147128137,2147771035,2147574710,2147570386,637,2,13,32999
